| time (UTC) | temp C | wind direction | speed KPH | gust KPH | rain 1hr cm | rain 24hr cm | rain mn cm | humidity % | barometer mb |
| 20260906121841 | 25 | 347 | 0.0 | 3.2 | 0.00 | 0.00 | 0.00 | 88 | 1011.5 |
| 20260906121504 | 25 | 289 | 1.6 | 3.2 | 0.00 | 0.00 | 0.00 | 89 | 1010.7 |
| 20260906121338 | 25 | 347 | 0.0 | 3.2 | 0.00 | 0.00 | 0.00 | 88 | 1011.5 |
| 20260906120836 | 25 | 346 | 0.0 | 3.2 | 0.00 | 0.00 | 0.00 | 88 | 1011.5 |
| 20260906120058 | 25 | 288 | 0.0 | 4.8 | 0.00 | 0.00 | 0.00 | 89 | 1010.7 |
| 20260906114817 | 25 | 345 | 0.0 | 3.2 | 0.00 | 0.00 | 0.00 | 88 | 1011.7 |
| 20260906114610 | 25 | 287 | 0.0 | 0.0 | 0.00 | 0.00 | 0.00 | 89 | 1010.8 |
| 20260906114317 | 25 | 345 | 0.0 | 0.0 | 0.00 | 0.00 | 0.00 | 88 | 1011.6 |
| 20260906113816 | 25 | 345 | 0.0 | 0.0 | 0.00 | 0.00 | 0.00 | 88 | 1011.5 |
| 20260906113315 | 25 | 345 | 0.0 | 1.6 | 0.00 | 0.00 | 0.00 | 88 | 1011.5 |
| 20260906113057 | 25 | 287 | 0.0 | 1.6 | 0.00 | 0.00 | 0.00 | 89 | 1010.6 |
| 20260906112804 | 25 | 345 | 0.0 | 1.6 | 0.00 | 0.00 | 0.00 | 88 | 1011.4 |
| 20260906112257 | 25 | 345 | 0.0 | 3.2 | 0.00 | 0.00 | 0.00 | 88 | 1011.1 |
| 20260906111759 | 25 | 345 | 0.0 | 3.2 | 0.00 | 0.00 | 0.00 | 88 | 1011.1 |
| 20260906111550 | 25 | 287 | 0.0 | 6.4 | 0.00 | 0.00 | 0.00 | 89 | 1010.2 |
| 20260906111250 | 25 | 345 | 1.6 | 6.4 | 0.00 | 0.00 | 0.00 | 88 | 1011.0 |
| 20260906110738 | 25 | 345 | 1.6 | 6.4 | 0.00 | 0.00 | 0.00 | 87 | 1010.9 |
| 20260906110225 | 25 | 348 | 1.6 | 4.8 | 0.00 | 0.00 | 0.00 | 87 | 1010.8 |
| 20260906110049 | 25 | 290 | 1.6 | 4.8 | 0.00 | 0.00 | 0.00 | 88 | 1010.0 |
| 20260906105713 | 25 | 349 | 1.6 | 4.8 | 0.00 | 0.00 | 0.00 | 87 | 1010.8 |
| 20260906105213 | 25 | 349 | 0.0 | 4.8 | 0.00 | 0.00 | 0.00 | 87 | 1010.8 |
| 20260906104710 | 25 | 349 | 1.6 | 4.8 | 0.00 | 0.00 | 0.00 | 87 | 1010.6 |
| 20260906104548 | 25 | 291 | 0.0 | 4.8 | 0.00 | 0.00 | 0.00 | 88 | 1009.7 |
| 20260906104206 | 25 | 349 | 0.0 | 4.8 | 0.00 | 0.00 | 0.00 | 87 | 1010.6 |
| 20260906103719 | 25 | 345 | 0.0 | 0.0 | 0.00 | 0.00 | 0.00 | 87 | 1010.4 |
| 20260906103207 | 25 | 345 | 0.0 | 0.0 | 0.00 | 0.00 | 0.00 | 87 | 1010.4 |
| 20260906103048 | 25 | 287 | 0.0 | 0.0 | 0.00 | 0.00 | 0.00 | 88 | 1009.4 |
| 20260906102710 | 25 | 345 | 0.0 | 4.8 | 0.00 | 0.00 | 0.00 | 87 | 1010.3 |
| 20260906102157 | 25 | 345 | 1.6 | 6.4 | 0.00 | 0.00 | 0.00 | 87 | 1010.4 |
| 20260906101648 | 25 | 340 | 3.2 | 6.4 | 0.00 | 0.00 | 0.00 | 87 | 1010.4 |
| 20260906101546 | 25 | 282 | 0.0 | 6.4 | 0.00 | 0.00 | 0.00 | 88 | 1009.4 |
| 20260906101155 | 25 | 348 | 1.6 | 6.4 | 0.00 | 0.00 | 0.00 | 87 | 1010.2 |
| 20260906100631 | 25 | 349 | 0.0 | 6.4 | 0.00 | 0.00 | 0.00 | 87 | 1010.2 |
| 20260906100125 | 25 | 349 | 0.0 | 6.4 | 0.00 | 0.00 | 0.00 | 87 | 1010.2 |
| 20260906100045 | 25 | 285 | 0.0 | 0.0 | 0.00 | 0.00 | 0.00 | 88 | 1009.3 |
| 20260906095123 | 25 | 344 | 0.0 | 3.2 | 0.00 | 0.00 | 0.00 | 87 | 1010.2 |
| 20260906094613 | 25 | 343 | 0.0 | 3.2 | 0.00 | 0.00 | 0.00 | 87 | 1010.1 |
| 20260906094544 | 25 | 285 | 0.0 | 3.2 | 0.00 | 0.00 | 0.00 | 88 | 1009.3 |
| 20260906094106 | 25 | 343 | 0.0 | 1.6 | 0.00 | 0.00 | 0.00 | 87 | 1010.1 |
| 20260906093554 | 25 | 343 | 0.0 | 1.6 | 0.00 | 0.00 | 0.00 | 87 | 1010.1 |
| 20260906093047 | 25 | 344 | 0.0 | 1.6 | 0.00 | 0.00 | 0.00 | 87 | 1010.1 |
| 20260906093044 | 25 | 286 | 0.0 | 1.6 | 0.00 | 0.00 | 0.00 | 88 | 1009.3 |
| 20260906092545 | 25 | 344 | 0.0 | 1.6 | 0.00 | 0.00 | 0.00 | 87 | 1010.2 |
| 20260906092047 | 25 | 344 | 0.0 | 1.6 | 0.00 | 0.00 | 0.00 | 87 | 1010.1 |
| 20260906091546 | 25 | 344 | 0.0 | 1.6 | 0.00 | 0.00 | 0.00 | 86 | 1010.1 |
| 20260906091542 | 25 | 286 | 0.0 | 1.6 | 0.00 | 0.00 | 0.00 | 87 | 1009.3 |
| 20260906090526 | 25 | 344 | 0.0 | 4.8 | 0.00 | 0.00 | 0.00 | 86 | 1010.1 |
| 20260906090043 | 25 | 286 | 0.0 | 4.8 | 0.00 | 0.00 | 0.00 | 87 | 1009.4 |
| 20260906090026 | 26 | 344 | 0.0 | 4.8 | 0.00 | 0.00 | 0.00 | 86 | 1010.2 |
| 20260906085525 | 26 | 343 | 0.0 | 4.8 | 0.00 | 0.00 | 0.00 | 86 | 1010.2 |
| 20260906085024 | 26 | 343 | 0.0 | 3.2 | 0.00 | 0.00 | 0.00 | 86 | 1010.1 |
| 20260906084541 | 25 | 285 | 0.0 | 3.2 | 0.00 | 0.00 | 0.00 | 87 | 1009.3 |
| 20260906084513 | 26 | 343 | 0.0 | 3.2 | 0.00 | 0.00 | 0.00 | 86 | 1010.2 |
| 20260906084003 | 26 | 343 | 0.0 | 3.2 | 0.00 | 0.00 | 0.00 | 86 | 1010.1 |
| 20260906083458 | 26 | 343 | 0.0 | 3.2 | 0.00 | 0.00 | 0.00 | 86 | 1010.1 |
| 20260906083041 | 25 | 285 | 0.0 | 3.2 | 0.00 | 0.00 | 0.00 | 87 | 1009.3 |
| 20260906082946 | 26 | 343 | 0.0 | 3.2 | 0.00 | 0.00 | 0.00 | 86 | 1010.1 |
| 20260906082437 | 26 | 343 | 0.0 | 3.2 | 0.00 | 0.00 | 0.00 | 86 | 1010.1 |
| 20260906081931 | 26 | 342 | 0.0 | 0.0 | 0.00 | 0.00 | 0.00 | 86 | 1010.1 |
| 20260906081544 | 26 | 284 | 0.0 | 0.0 | 0.00 | 0.00 | 0.00 | 87 | 1009.3 |
| 20260906081431 | 26 | 343 | 0.0 | 3.2 | 0.00 | 0.00 | 0.00 | 86 | 1010.1 |
| 20260906080928 | 26 | 343 | 0.0 | 3.2 | 0.00 | 0.00 | 0.00 | 86 | 1010.2 |
| 20260906080041 | 26 | 283 | 0.0 | 4.8 | 0.00 | 0.00 | 0.00 | 87 | 1009.4 |
| 20260906075914 | 26 | 341 | 1.6 | 4.8 | 0.00 | 0.00 | 0.00 | 86 | 1010.2 |
| 20260906075402 | 26 | 334 | 0.0 | 4.8 | 0.00 | 0.00 | 0.00 | 86 | 1010.2 |
| 20260906074855 | 26 | 332 | 0.0 | 3.2 | 0.00 | 0.00 | 0.00 | 86 | 1010.2 |
| 20260906074548 | 26 | 274 | 0.0 | 3.2 | 0.00 | 0.00 | 0.00 | 87 | 1009.2 |
| 20260906073841 | 26 | 331 | 0.0 | 3.2 | 0.00 | 0.00 | 0.00 | 86 | 1010.0 |
| 20260906073346 | 26 | 331 | 0.0 | 4.8 | 0.00 | 0.00 | 0.00 | 86 | 1010.0 |
| 20260906073037 | 26 | 273 | 0.0 | 4.8 | 0.00 | 0.00 | 0.00 | 86 | 1009.2 |
| 20260906072837 | 26 | 331 | 1.6 | 4.8 | 0.00 | 0.00 | 0.00 | 85 | 1010.1 |
| 20260906072331 | 26 | 331 | 1.6 | 4.8 | 0.00 | 0.00 | 0.00 | 85 | 1010.1 |
| 20260906071831 | 26 | 330 | 1.6 | 4.8 | 0.00 | 0.00 | 0.00 | 85 | 1010.2 |
| 20260906071537 | 26 | 271 | 0.0 | 4.8 | 0.00 | 0.00 | 0.00 | 86 | 1009.4 |
| 20260906071325 | 26 | 328 | 1.6 | 4.8 | 0.00 | 0.00 | 0.00 | 85 | 1010.3 |
| 20260906070812 | 26 | 326 | 0.0 | 4.8 | 0.00 | 0.00 | 0.00 | 85 | 1010.2 |
| 20260906070303 | 26 | 326 | 1.6 | 6.4 | 0.00 | 0.00 | 0.00 | 85 | 1010.2 |
| 20260906070033 | 26 | 268 | 0.0 | 6.4 | 0.00 | 0.00 | 0.00 | 86 | 1009.4 |
| 20260906065756 | 26 | 324 | 1.6 | 6.4 | 0.00 | 0.00 | 0.00 | 85 | 1010.4 |
| 20260906065258 | 26 | 341 | 0.0 | 1.6 | 0.00 | 0.00 | 0.00 | 85 | 1010.2 |
| 20260906064757 | 26 | 341 | 0.0 | 3.2 | 0.00 | 0.00 | 0.00 | 85 | 1010.3 |
| 20260906064533 | 26 | 283 | 0.0 | 3.2 | 0.00 | 0.00 | 0.00 | 86 | 1009.5 |
| 20260906064256 | 26 | 340 | 0.0 | 3.2 | 0.00 | 0.00 | 0.00 | 85 | 1010.4 |
| 20260906063752 | 26 | 340 | 0.0 | 3.2 | 0.00 | 0.00 | 0.00 | 85 | 1010.4 |
| 20260906063032 | 26 | 285 | 0.0 | 3.2 | 0.00 | 0.00 | 0.00 | 86 | 1009.6 |
| 20260906062247 | 26 | 185 | 0.0 | 3.2 | 0.00 | 0.00 | 0.00 | 85 | 1010.5 |
| 20260906061740 | 26 | 185 | 0.0 | 4.8 | 0.00 | 0.00 | 0.00 | 85 | 1010.4 |
| 20260906061531 | 26 | 127 | 0.0 | 4.8 | 0.00 | 0.00 | 0.00 | 86 | 1009.6 |
| 20260906061233 | 26 | 185 | 1.6 | 6.4 | 0.00 | 0.00 | 0.00 | 85 | 1010.3 |
| 20260906060725 | 26 | 152 | 0.0 | 6.4 | 0.00 | 0.00 | 0.00 | 85 | 1010.4 |
| 20260906060221 | 26 | 99 | 0.0 | 3.2 | 0.00 | 0.00 | 0.00 | 85 | 1010.5 |
| 20260906060033 | 26 | 152 | 0.0 | 0.0 | 0.00 | 0.00 | 0.00 | 86 | 1009.6 |
| 20260906055724 | 26 | 210 | 0.0 | 0.0 | 0.00 | 0.00 | 0.00 | 86 | 1010.5 |
| 20260906055218 | 26 | 205 | 0.0 | 0.0 | 0.00 | 0.00 | 0.00 | 86 | 1010.5 |
| 20260906054709 | 26 | 205 | 0.0 | 0.0 | 0.00 | 0.00 | 0.00 | 85 | 1010.5 |
| 20260906054531 | 26 | 147 | 0.0 | 0.0 | 0.00 | 0.00 | 0.00 | 86 | 1009.7 |
| 20260906053210 | 26 | 205 | 0.0 | 0.0 | 0.00 | 0.00 | 0.00 | 85 | 1010.7 |
| 20260906053032 | 26 | 147 | 0.0 | 0.0 | 0.00 | 0.00 | 0.00 | 86 | 1009.9 |
| 20260906052656 | 27 | 205 | 0.0 | 0.0 | 0.00 | 0.00 | 0.00 | 85 | 1010.8 |
| 20260906052148 | 27 | 205 | 0.0 | 0.0 | 0.00 | 0.00 | 0.00 | 85 | 1010.9 |
| 20260906051640 | 27 | 205 | 0.0 | 0.0 | 0.00 | 0.00 | 0.00 | 85 | 1010.8 |
| 20260906051526 | 26 | 147 | 0.0 | 0.0 | 0.00 | 0.00 | 0.00 | 86 | 1010.0 |
| 20260906051139 | 27 | 205 | 0.0 | 0.0 | 0.00 | 0.00 | 0.00 | 85 | 1010.9 |
| 20260906050643 | 27 | 205 | 0.0 | 0.0 | 0.00 | 0.00 | 0.00 | 85 | 1010.9 |
| 20260906050139 | 27 | 205 | 0.0 | 0.0 | 0.00 | 0.00 | 0.00 | 85 | 1010.9 |
| 20260906050033 | 27 | 147 | 0.0 | 0.0 | 0.00 | 0.00 | 0.00 | 86 | 1010.0 |
| 20260906045643 | 27 | 205 | 0.0 | 0.0 | 0.00 | 0.00 | 0.00 | 85 | 1010.8 |
| 20260906045135 | 27 | 205 | 0.0 | 0.0 | 0.00 | 0.00 | 0.00 | 85 | 1010.7 |
| 20260906044635 | 27 | 205 | 0.0 | 0.0 | 0.00 | 0.00 | 0.00 | 85 | 1010.8 |
| 20260906044534 | 27 | 147 | 0.0 | 0.0 | 0.00 | 0.00 | 0.00 | 86 | 1009.9 |
| 20260906044139 | 27 | 205 | 0.0 | 0.0 | 0.00 | 0.00 | 0.00 | 85 | 1010.8 |
| 20260906043632 | 27 | 205 | 0.0 | 1.6 | 0.00 | 0.00 | 0.00 | 85 | 1010.9 |
| 20260906043121 | 27 | 209 | 0.0 | 3.2 | 0.00 | 0.00 | 0.00 | 85 | 1010.9 |
| 20260906043022 | 26 | 151 | 0.0 | 3.2 | 0.00 | 0.00 | 0.00 | 86 | 1010.0 |
| 20260906042617 | 27 | 208 | 1.6 | 4.8 | 0.00 | 0.00 | 0.00 | 85 | 1011.0 |
| 20260906042104 | 27 | 209 | 1.6 | 4.8 | 0.00 | 0.00 | 0.00 | 85 | 1010.9 |
| 20260906041604 | 27 | 208 | 1.6 | 4.8 | 0.00 | 0.00 | 0.00 | 85 | 1010.8 |
| 20260906041521 | 26 | 147 | 0.0 | 3.2 | 0.00 | 0.00 | 0.00 | 86 | 1009.9 |
| 20260906040621 | 26 | 206 | 0.0 | 3.2 | 0.00 | 0.00 | 0.00 | 85 | 1011.0 |
| 20260906040105 | 26 | 206 | 0.0 | 0.0 | 0.00 | 0.00 | 0.00 | 85 | 1011.1 |
| 20260906040025 | 26 | 148 | 0.0 | 0.0 | 0.00 | 0.00 | 0.00 | 86 | 1010.3 |
| 20260906035546 | 27 | 206 | 0.0 | 1.6 | 0.00 | 0.00 | 0.00 | 85 | 1011.1 |
| 20260906035047 | 27 | 206 | 0.0 | 1.6 | 0.00 | 0.00 | 0.00 | 84 | 1011.2 |
| 20260906034546 | 27 | 206 | 0.0 | 3.2 | 0.00 | 0.00 | 0.00 | 84 | 1011.3 |
| 20260906034517 | 27 | 148 | 0.0 | 3.2 | 0.00 | 0.00 | 0.00 | 85 | 1010.4 |
| 20260906034049 | 27 | 206 | 0.0 | 3.2 | 0.00 | 0.00 | 0.00 | 84 | 1011.3 |
| 20260906033541 | 27 | 209 | 0.0 | 3.2 | 0.00 | 0.00 | 0.00 | 84 | 1011.4 |
| 20260906033036 | 27 | 201 | 0.0 | 0.0 | 0.00 | 0.00 | 0.00 | 84 | 1011.4 |
| 20260906033034 | 27 | 143 | 0.0 | 0.0 | 0.00 | 0.00 | 0.00 | 85 | 1010.6 |
| 20260906032537 | 27 | 201 | 0.0 | 0.0 | 0.00 | 0.00 | 0.00 | 84 | 1011.5 |
| 20260906032035 | 27 | 201 | 0.0 | 0.0 | 0.00 | 0.00 | 0.00 | 84 | 1011.5 |
| 20260906031524 | 27 | 201 | 0.0 | 0.0 | 0.00 | 0.00 | 0.00 | 84 | 1011.5 |
| 20260906031515 | 27 | 143 | 0.0 | 0.0 | 0.00 | 0.00 | 0.00 | 85 | 1010.7 |
| 20260906031011 | 27 | 201 | 0.0 | 0.0 | 0.00 | 0.00 | 0.00 | 84 | 1011.7 |
| 20260906030503 | 27 | 201 | 0.0 | 0.0 | 0.00 | 0.00 | 0.00 | 84 | 1011.6 |
| 20260906030015 | 27 | 143 | 0.0 | 0.0 | 0.00 | 0.00 | 0.00 | 85 | 1010.7 |
| 20260906025956 | 27 | 201 | 0.0 | 0.0 | 0.00 | 0.00 | 0.00 | 84 | 1011.6 |
| 20260906025451 | 27 | 201 | 0.0 | 0.0 | 0.00 | 0.00 | 0.00 | 84 | 1011.6 |
| 20260906024953 | 27 | 198 | 0.0 | 0.0 | 0.00 | 0.00 | 0.00 | 83 | 1011.7 |
| 20260906024516 | 27 | 140 | 0.0 | 0.0 | 0.00 | 0.00 | 0.00 | 84 | 1010.9 |
| 20260906024446 | 27 | 198 | 0.0 | 0.0 | 0.00 | 0.00 | 0.00 | 83 | 1011.7 |
| 20260906023937 | 27 | 198 | 0.0 | 0.0 | 0.00 | 0.00 | 0.00 | 83 | 1011.7 |
| 20260906023430 | 27 | 198 | 0.0 | 4.8 | 0.00 | 0.00 | 0.00 | 83 | 1011.7 |
| 20260906023015 | 27 | 140 | 0.0 | 4.8 | 0.00 | 0.00 | 0.00 | 84 | 1010.9 |
| 20260906022419 | 27 | 228 | 1.6 | 6.4 | 0.00 | 0.00 | 0.00 | 83 | 1011.7 |
| 20260906021918 | 27 | 228 | 3.2 | 6.4 | 0.00 | 0.00 | 0.00 | 83 | 1011.8 |
| 20260906021514 | 27 | 156 | 1.6 | 8.0 | 0.00 | 0.00 | 0.00 | 84 | 1011.0 |
| 20260906021414 | 27 | 220 | 1.6 | 6.4 | 0.00 | 0.00 | 0.00 | 83 | 1011.7 |
| 20260906020909 | 27 | 196 | 1.6 | 6.4 | 0.00 | 0.00 | 0.00 | 83 | 1011.8 |
| 20260906020013 | 27 | 158 | 0.0 | 4.8 | 0.00 | 0.00 | 0.00 | 84 | 1011.0 |
| 20260906015908 | 27 | 216 | 1.6 | 4.8 | 0.00 | 0.00 | 0.00 | 83 | 1011.8 |
| 20260906014513 | 27 | 157 | 0.0 | 4.8 | 0.00 | 0.00 | 0.00 | 85 | 1010.6 |
| 20260906014347 | 27 | 216 | 1.6 | 4.8 | 0.00 | 0.00 | 0.00 | 84 | 1011.4 |
| 20260906013836 | 27 | 212 | 1.6 | 6.4 | 0.00 | 0.00 | 0.00 | 84 | 1011.3 |
| 20260906013014 | 27 | 145 | 0.0 | 4.8 | 0.00 | 0.00 | 0.00 | 85 | 1010.4 |
| 20260906012821 | 27 | 219 | 0.0 | 1.6 | 0.00 | 0.00 | 0.00 | 84 | 1011.2 |
| 20260906012310 | 27 | 219 | 0.0 | 8.0 | 0.00 | 0.00 | 0.00 | 84 | 1011.1 |
| 20260906011801 | 28 | 221 | 1.6 | 8.0 | 0.00 | 0.00 | 0.00 | 84 | 1010.9 |
| 20260906011512 | 27 | 158 | 1.6 | 8.0 | 0.00 | 0.00 | 0.00 | 85 | 1010.0 |
| 20260906011302 | 28 | 205 | 1.6 | 4.8 | 0.00 | 0.00 | 0.00 | 84 | 1010.8 |
| 20260906010802 | 28 | 205 | 1.6 | 4.8 | 0.00 | 0.00 | 0.00 | 84 | 1010.9 |
| 20260906010257 | 28 | 199 | 1.6 | 4.8 | 0.00 | 0.00 | 0.00 | 83 | 1010.8 |
| 20260906010012 | 27 | 139 | 0.0 | 4.8 | 0.00 | 0.00 | 0.00 | 84 | 1010.0 |
| 20260906005236 | 28 | 193 | 1.6 | 6.4 | 0.00 | 0.00 | 0.00 | 83 | 1010.8 |
| 20260906004730 | 28 | 229 | 0.0 | 4.8 | 0.00 | 0.00 | 0.00 | 83 | 1010.9 |
| 20260906004512 | 27 | 171 | 0.0 | 3.2 | 0.00 | 0.00 | 0.00 | 84 | 1010.0 |
| 20260906004224 | 28 | 151 | 0.0 | 0.0 | 0.00 | 0.00 | 0.00 | 83 | 1010.9 |
| 20260906003011 | 28 | 93 | 0.0 | 6.4 | 0.00 | 0.00 | 0.00 | 84 | 1009.9 |
| 20260906002710 | 28 | 150 | 0.0 | 8.0 | 0.00 | 0.00 | 0.00 | 83 | 1010.7 |
| 20260906002217 | 28 | 209 | 1.6 | 4.8 | 0.00 | 0.00 | 0.00 | 82 | 1010.8 |
| 20260906001707 | 28 | 205 | 1.6 | 4.8 | 0.00 | 0.00 | 0.00 | 82 | 1010.7 |
| 20260906001509 | 28 | 147 | 1.6 | 4.8 | 0.00 | 0.00 | 0.00 | 83 | 1009.8 |
| 20260906000651 | 28 | 203 | 3.2 | 9.7 | 0.00 | 0.00 | 0.00 | 81 | 1010.7 |
| 20260906000152 | 28 | 207 | 3.2 | 8.0 | 0.00 | 0.00 | 0.00 | 81 | 1010.6 |
| 20260906000010 | 28 | 162 | 1.6 | 8.0 | 0.00 | 0.00 | 0.00 | 82 | 1009.7 |
| 20260905235646 | 28 | 207 | 3.2 | 8.0 | 0.00 | 0.00 | 0.00 | 81 | 1010.5 |
| 20260905235136 | 28 | 207 | 1.6 | 9.7 | 0.00 | 0.00 | 0.00 | 80 | 1010.5 |
| 20260905234638 | 29 | 232 | 3.2 | 9.7 | 0.00 | 0.00 | 0.00 | 80 | 1010.4 |
| 20260905234509 | 28 | 165 | 3.2 | 9.7 | 0.00 | 0.00 | 0.00 | 81 | 1009.6 |
| 20260905233620 | 29 | 166 | 1.6 | 6.4 | 0.00 | 0.00 | 0.00 | 80 | 1010.5 |
| 20260905233118 | 29 | 226 | 1.6 | 6.4 | 0.00 | 0.00 | 0.00 | 79 | 1010.5 |
| 20260905233008 | 29 | 169 | 3.2 | 8.0 | 0.00 | 0.00 | 0.00 | 80 | 1009.8 |
| 20260905232623 | 30 | 206 | 1.6 | 4.8 | 0.00 | 0.00 | 0.00 | 79 | 1010.5 |
| 20260905232114 | 30 | 201 | 3.2 | 6.4 | 0.00 | 0.00 | 0.00 | 79 | 1010.4 |
| 20260905231509 | 30 | 166 | 1.6 | 8.0 | 0.00 | 0.00 | 0.00 | 80 | 1009.6 |
| 20260905231114 | 30 | 189 | 4.8 | 11.3 | 0.00 | 0.00 | 0.00 | 78 | 1010.5 |
| 20260905230605 | 30 | 172 | 4.8 | 11.3 | 0.00 | 0.00 | 0.00 | 78 | 1010.5 |
| 20260905230111 | 30 | 239 | 1.6 | 11.3 | 0.00 | 0.00 | 0.00 | 77 | 1010.6 |
| 20260905230008 | 30 | 130 | 3.2 | 8.0 | 0.00 | 0.00 | 0.00 | 78 | 1009.7 |
| 20260905225052 | 30 | 359 | 0.0 | 0.0 | 0.00 | 0.00 | 0.00 | 76 | 1010.4 |
| 20260905224551 | 31 | 359 | 0.0 | 0.0 | 0.00 | 0.00 | 0.00 | 75 | 1010.4 |
| 20260905224507 | 31 | 301 | 0.0 | 0.0 | 0.00 | 0.00 | 0.00 | 76 | 1009.6 |
| 20260905224054 | 31 | 359 | 0.0 | 1.6 | 0.00 | 0.00 | 0.00 | 72 | 1010.4 |
| 20260905223552 | 31 | 359 | 0.0 | 1.6 | 0.00 | 0.00 | 0.00 | 72 | 1010.3 |
| 20260905223041 | 31 | 359 | 0.0 | 0.0 | 0.00 | 0.00 | 0.00 | 71 | 1010.4 |
| 20260905223007 | 31 | 301 | 0.0 | 0.0 | 0.00 | 0.00 | 0.00 | 73 | 1009.6 |
| 20260905222531 | 31 | 359 | 0.0 | 1.6 | 0.00 | 0.00 | 0.00 | 74 | 1010.5 |
| 20260905222021 | 31 | 359 | 1.6 | 3.2 | 0.00 | 0.00 | 0.00 | 76 | 1010.7 |
| 20260905221513 | 31 | 359 | 1.6 | 3.2 | 0.00 | 0.00 | 0.00 | 73 | 1010.7 |
| 20260905221506 | 30 | 301 | 0.0 | 3.2 | 0.00 | 0.00 | 0.00 | 74 | 1009.8 |
| 20260905221009 | 30 | 359 | 0.0 | 3.2 | 0.00 | 0.00 | 0.00 | 76 | 1010.8 |
| 20260905220508 | 30 | 359 | 0.0 | 0.0 | 0.00 | 0.00 | 0.00 | 77 | 1010.8 |
| 20260905220006 | 30 | 301 | 0.0 | 0.0 | 0.00 | 0.00 | 0.00 | 78 | 1010.1 |
| 20260905220002 | 30 | 359 | 0.0 | 0.0 | 0.00 | 0.00 | 0.00 | 77 | 1010.9 |
| 20260905215459 | 31 | 359 | 0.0 | 3.2 | 0.00 | 0.00 | 0.00 | 76 | 1010.9 |
| 20260905215001 | 31 | 359 | 0.0 | 4.8 | 0.00 | 0.00 | 0.00 | 72 | 1011.0 |
| 20260905214505 | 31 | 359 | 1.6 | 4.8 | 0.00 | 0.00 | 0.00 | 72 | 1011.0 |
| 20260905213442 | 31 | 359 | 1.6 | 4.8 | 0.00 | 0.00 | 0.00 | 72 | 1011.0 |
| 20260905213005 | 31 | 301 | 1.6 | 8.0 | 0.00 | 0.00 | 0.00 | 72 | 1010.0 |
| 20260905212943 | 31 | 359 | 1.6 | 8.0 | 0.00 | 0.00 | 0.00 | 72 | 1010.9 |
| 20260905212443 | 31 | 7 | 1.6 | 8.0 | 0.00 | 0.00 | 0.00 | 72 | 1010.9 |
| 20260905211504 | 31 | 322 | 3.2 | 9.7 | 0.00 | 0.00 | 0.00 | 71 | 1009.9 |
| 20260905211434 | 31 | 20 | 3.2 | 9.7 | 0.00 | 0.00 | 0.00 | 70 | 1010.7 |
| 20260905210927 | 31 | 341 | 4.8 | 8.0 | 0.00 | 0.00 | 0.00 | 71 | 1010.7 |
| 20260905210413 | 32 | 346 | 4.8 | 9.7 | 0.00 | 0.00 | 0.00 | 71 | 1010.6 |
| 20260905210003 | 31 | 310 | 6.4 | 11.3 | 0.00 | 0.00 | 0.00 | 70 | 1009.7 |
| 20260905205919 | 31 | 343 | 4.8 | 9.7 | 0.00 | 0.00 | 0.00 | 69 | 1010.6 |
| 20260905205410 | 31 | 336 | 3.2 | 12.9 | 0.00 | 0.00 | 0.00 | 70 | 1010.7 |
| 20260905204904 | 31 | 340 | 1.6 | 12.9 | 0.00 | 0.00 | 0.00 | 70 | 1010.6 |
| 20260905204507 | 32 | 195 | 1.6 | 4.8 | 0.00 | 1.85 | 0.00 | 70 | 1009.7 |
| 20260905204405 | 32 | 253 | 1.6 | 4.8 | 0.00 | 0.00 | 0.00 | 69 | 1010.5 |
| 20260905203905 | 32 | 286 | 3.2 | 9.7 | 0.00 | 0.03 | 0.00 | 70 | 1010.6 |
| 20260905203408 | 32 | 345 | 3.2 | 9.7 | 0.00 | 0.08 | 0.00 | 70 | 1010.5 |
| 20260905203003 | 31 | 293 | 3.2 | 11.3 | 0.00 | 1.85 | 0.00 | 71 | 1009.6 |
| 20260905202859 | 32 | 338 | 3.2 | 9.7 | 0.00 | 0.28 | 0.00 | 70 | 1010.5 |
| 20260905202353 | 32 | 347 | 4.8 | 9.7 | 0.00 | 0.69 | 0.00 | 70 | 1010.4 |
| 20260905201505 | 31 | 280 | 4.8 | 11.3 | 0.00 | 1.85 | 0.00 | 72 | 1009.6 |
| 20260905201348 | 32 | 351 | 3.2 | 9.7 | 0.00 | 1.85 | 0.00 | 70 | 1010.4 |
| 20260905200851 | 32 | 261 | 3.2 | 9.7 | 0.00 | 1.85 | 0.00 | 69 | 1010.5 |
| 20260905200338 | 32 | 290 | 6.4 | 16.1 | 0.00 | 1.85 | 0.00 | 69 | 1010.6 |
| 20260905195828 | 32 | 351 | 6.4 | 16.1 | 0.00 | 1.85 | 0.00 | 69 | 1010.7 |
| 20260905195318 | 32 | 341 | 3.2 | 9.7 | 0.00 | 1.88 | 0.00 | 69 | 1010.8 |
| 20260905194813 | 32 | 13 | 4.8 | 14.5 | 0.00 | 1.93 | 0.00 | 70 | 1010.8 |
| 20260905194558 | 31 | 278 | 3.2 | 16.1 | 0.00 | 2.16 | 0.00 | 71 | 1009.9 |
| 20260905194309 | 32 | 349 | 4.8 | 14.5 | 0.00 | 1.93 | 0.00 | 69 | 1010.9 |
| 20260905193813 | 32 | 328 | 4.8 | 12.9 | 0.00 | 2.03 | 0.00 | 70 | 1011.1 |
| 20260905193307 | 32 | 326 | 6.4 | 14.5 | 0.00 | 2.03 | 0.00 | 70 | 1011.0 |
| 20260905193056 | 31 | 295 | 1.6 | 16.1 | 0.00 | 2.16 | 0.00 | 70 | 1010.2 |
| 20260905192808 | 32 | 22 | 4.8 | 14.5 | 0.00 | 2.03 | 0.00 | 70 | 1011.1 |
| 20260905192305 | 32 | 336 | 4.8 | 11.3 | 0.00 | 2.06 | 0.00 | 70 | 1011.1 |
| 20260905191752 | 32 | 343 | 6.4 | 12.9 | 0.00 | 2.08 | 0.00 | 70 | 1011.2 |
| 20260905191554 | 31 | 298 | 3.2 | 14.5 | 0.00 | 2.16 | 0.00 | 71 | 1010.3 |
| 20260905191245 | 31 | 1 | 4.8 | 12.9 | 0.00 | 2.08 | 0.00 | 69 | 1011.2 |
| 20260905190052 | 31 | 301 | 3.2 | 14.5 | 0.00 | 2.16 | 0.00 | 72 | 1010.5 |
| 20260905185215 | 31 | 352 | 4.8 | 12.9 | 0.00 | 2.26 | 0.00 | 72 | 1011.4 |
| 20260905184716 | 31 | 355 | 6.4 | 16.1 | 0.00 | 2.31 | 0.00 | 72 | 1011.6 |
| 20260905184548 | 31 | 297 | 4.8 | 17.7 | 0.00 | 3.78 | 0.00 | 72 | 1010.8 |
| 20260905184210 | 31 | 354 | 8.0 | 16.1 | 0.00 | 2.44 | 0.00 | 72 | 1011.7 |
| 20260905183151 | 31 | 357 | 3.2 | 12.9 | 0.00 | 3.20 | 0.00 | 72 | 1011.8 |
| 20260905183050 | 31 | 65 | 1.6 | 11.3 | 0.00 | 3.78 | 0.00 | 72 | 1011.0 |
| 20260905182647 | 31 | 331 | 4.8 | 12.9 | 0.00 | 3.33 | 0.00 | 73 | 1011.8 |
| 20260905182155 | 31 | 343 | 6.4 | 12.9 | 0.00 | 3.68 | 0.00 | 74 | 1011.9 |
| 20260905181647 | 30 | 345 | 4.8 | 11.3 | 0.00 | 3.78 | 0.00 | 73 | 1012.0 |
| 20260905181602 | 30 | 301 | 4.8 | 12.9 | 0.00 | 3.78 | 0.00 | 74 | 1011.1 |
| 20260905181140 | 31 | 359 | 6.4 | 12.9 | 0.00 | 3.78 | 0.00 | 74 | 1012.0 |
| 20260905180630 | 30 | 337 | 6.4 | 12.9 | 0.00 | 3.78 | 0.00 | 74 | 1012.1 |
| 20260905180124 | 30 | 344 | 4.8 | 12.9 | 0.00 | 3.78 | 0.00 | 74 | 1012.2 |
| 20260905180043 | 30 | 327 | 4.8 | 14.5 | 0.00 | 3.78 | 0.00 | 75 | 1011.3 |
| 20260905175612 | 30 | 351 | 6.4 | 12.9 | 0.00 | 3.78 | 0.00 | 73 | 1012.3 |
| 20260905174549 | 30 | 311 | 3.2 | 12.9 | 0.00 | 3.78 | 0.00 | 74 | 1011.5 |
| 20260905174044 | 30 | 345 | 4.8 | 11.3 | 0.00 | 3.78 | 0.00 | 74 | 1012.5 |
| 20260905173543 | 30 | 345 | 3.2 | 11.3 | 0.00 | 3.78 | 0.00 | 74 | 1012.5 |
| 20260905173042 | 30 | 326 | 3.2 | 8.0 | 0.00 | 3.78 | 0.00 | 76 | 1012.6 |
| 20260905172534 | 30 | 345 | 1.6 | 6.4 | 0.00 | 3.78 | 0.00 | 75 | 1012.6 |
| 20260905172036 | 30 | 356 | 3.2 | 11.3 | 0.00 | 3.78 | 0.00 | 78 | 1012.8 |
| 20260905171543 | 29 | 300 | 1.6 | 12.9 | 0.00 | 3.78 | 0.00 | 79 | 1012.1 |
| 20260905171532 | 29 | 347 | 3.2 | 11.3 | 0.00 | 3.78 | 0.00 | 78 | 1012.9 |
| 20260905170525 | 30 | 349 | 3.2 | 8.0 | 0.00 | 3.78 | 0.00 | 76 | 1013.1 |
| 20260905170037 | 30 | 296 | 1.6 | 11.3 | 0.00 | 3.78 | 0.00 | 77 | 1012.3 |
| 20260905170020 | 30 | 354 | 3.2 | 9.7 | 0.00 | 3.78 | 0.00 | 76 | 1013.2 |
| 20260905165520 | 29 | 342 | 4.8 | 11.3 | 0.00 | 3.78 | 0.00 | 78 | 1013.3 |
| 20260905165015 | 29 | 341 | 4.8 | 11.3 | 0.00 | 3.78 | 0.00 | 77 | 1013.4 |
| 20260905164537 | 29 | 311 | 1.6 | 11.3 | 0.00 | 3.78 | 0.00 | 78 | 1012.6 |
| 20260905164502 | 30 | 87 | 3.2 | 9.7 | 0.00 | 3.78 | 0.00 | 77 | 1013.4 |
| 20260905163957 | 30 | 336 | 4.8 | 11.3 | 0.00 | 3.78 | 0.00 | 77 | 1013.5 |
| 20260905163450 | 30 | 346 | 3.2 | 11.3 | 0.00 | 3.78 | 0.00 | 77 | 1013.6 |
| 20260905163035 | 29 | 282 | 1.6 | 11.3 | 0.00 | 3.78 | 0.00 | 79 | 1012.8 |
| 20260905162446 | 29 | 276 | 3.2 | 11.3 | 0.00 | 3.78 | 0.00 | 77 | 1013.7 |
| 20260905161532 | 29 | 314 | 1.6 | 12.9 | 0.00 | 3.78 | 0.00 | 79 | 1013.0 |
| 20260905161427 | 29 | 12 | 4.8 | 11.3 | 0.00 | 3.78 | 0.00 | 78 | 1013.8 |
| 20260905160421 | 29 | 346 | 4.8 | 11.3 | 0.00 | 3.78 | 0.00 | 78 | 1013.9 |
| 20260905160055 | 28 | 293 | 3.2 | 8.0 | 0.00 | 3.78 | 0.00 | 79 | 1013.2 |
| 20260905155920 | 29 | 348 | 3.2 | 9.7 | 0.00 | 3.78 | 0.00 | 78 | 1014.0 |
| 20260905155421 | 29 | 357 | 3.2 | 9.7 | 0.00 | 3.78 | 0.00 | 78 | 1014.0 |
| 20260905154913 | 29 | 356 | 3.2 | 9.7 | 0.00 | 3.78 | 0.00 | 78 | 1014.1 |
| 20260905154529 | 28 | 305 | 3.2 | 14.5 | 0.00 | 3.78 | 0.00 | 80 | 1013.2 |
| 20260905154406 | 28 | 358 | 4.8 | 16.1 | 0.00 | 3.78 | 0.00 | 78 | 1014.1 |
| 20260905153855 | 28 | 338 | 4.8 | 16.1 | 0.00 | 3.78 | 0.00 | 79 | 1014.0 |
| 20260905153353 | 28 | 10 | 4.8 | 12.9 | 0.00 | 3.78 | 0.00 | 81 | 1014.1 |
| 20260905153027 | 28 | 291 | 6.4 | 14.5 | 0.00 | 3.78 | 0.00 | 81 | 1013.4 |
| 20260905152854 | 28 | 353 | 3.2 | 12.9 | 0.00 | 3.78 | 0.00 | 80 | 1014.2 |
| 20260905152347 | 28 | 357 | 1.6 | 9.7 | 0.00 | 3.78 | 0.00 | 79 | 1014.3 |
| 20260905151839 | 28 | 323 | 1.6 | 9.7 | 0.00 | 3.78 | 0.00 | 79 | 1014.4 |
| 20260905151527 | 28 | 32 | 0.0 | 9.7 | 0.00 | 3.78 | 0.00 | 81 | 1013.5 |
| 20260905151338 | 28 | 351 | 3.2 | 9.7 | 0.00 | 3.78 | 0.00 | 80 | 1014.4 |
| 20260905150335 | 28 | 320 | 4.8 | 12.9 | 0.00 | 3.78 | 0.00 | 80 | 1014.4 |
| 20260905150022 | 27 | 299 | 6.4 | 14.5 | 0.00 | 3.78 | 0.00 | 82 | 1013.6 |
| 20260905145832 | 28 | 8 | 3.2 | 9.7 | 0.00 | 3.78 | 0.00 | 81 | 1014.4 |
| 20260905145326 | 28 | 3 | 1.6 | 9.7 | 0.00 | 3.78 | 0.00 | 81 | 1014.5 |
| 20260905144826 | 27 | 330 | 3.2 | 11.3 | 0.00 | 3.78 | 0.00 | 81 | 1014.5 |
| 20260905144520 | 27 | 276 | 1.6 | 12.9 | 0.00 | 3.78 | 0.00 | 83 | 1013.6 |
| 20260905143823 | 27 | 1 | 3.2 | 9.7 | 0.00 | 3.78 | 0.00 | 83 | 1014.4 |
| 20260905143325 | 27 | 257 | 4.8 | 12.9 | 0.00 | 3.78 | 0.00 | 83 | 1014.3 |
| 20260905143016 | 27 | 264 | 3.2 | 14.5 | 0.00 | 3.78 | 0.00 | 84 | 1013.6 |
| 20260905142821 | 27 | 335 | 3.2 | 12.9 | 0.00 | 3.78 | 0.00 | 83 | 1014.4 |
| 20260905142307 | 27 | 353 | 1.6 | 8.0 | 0.00 | 3.78 | 0.00 | 84 | 1014.3 |
| 20260905141805 | 27 | 311 | 1.6 | 6.4 | 0.00 | 3.78 | 0.00 | 85 | 1014.4 |
| 20260905141511 | 26 | 253 | 0.0 | 8.0 | 0.00 | 3.78 | 0.00 | 87 | 1013.5 |
| 20260905141317 | 26 | 207 | 1.6 | 8.0 | 0.00 | 3.78 | 0.00 | 86 | 1014.5 |
| 20260905140250 | 26 | 313 | 4.8 | 17.7 | 0.00 | 3.78 | 0.00 | 88 | 1014.5 |
| 20260905140008 | 26 | 255 | 3.2 | 19.3 | 0.00 | 3.78 | 0.00 | 89 | 1013.6 |
| 20260905135739 | 25 | 355 | 6.4 | 17.7 | 0.00 | 3.78 | 0.00 | 89 | 1014.5 |
| 20260905135244 | 25 | 336 | 3.2 | 9.7 | 0.00 | 3.78 | 0.00 | 89 | 1014.5 |
| 20260905134509 | 25 | 294 | 1.6 | 14.5 | 0.00 | 3.78 | 0.00 | 91 | 1013.6 |
| 20260905133243 | 25 | 163 | 3.2 | 11.3 | 0.00 | 3.78 | 0.00 | 90 | 1014.4 |
| 20260905133005 | 24 | 110 | 0.0 | 12.9 | 0.00 | 3.78 | 0.00 | 91 | 1013.7 |
| 20260905132744 | 25 | 318 | 1.6 | 11.3 | 0.00 | 3.78 | 0.00 | 90 | 1014.6 |
| 20260905132235 | 24 | 332 | 1.6 | 4.8 | 0.00 | 3.78 | 0.00 | 90 | 1014.5 |
| 20260905131723 | 24 | 350 | 3.2 | 9.7 | 0.00 | 3.78 | 0.00 | 90 | 1014.6 |
| 20260905131500 | 24 | 292 | 0.0 | 9.7 | 0.00 | 3.78 | 0.00 | 91 | 1013.9 |
| 20260905130703 | 24 | 8 | 3.2 | 9.7 | 0.00 | 3.78 | 0.00 | 90 | 1014.5 |
| 20260905130204 | 24 | 351 | 3.2 | 8.0 | 0.00 | 3.78 | 0.00 | 91 | 1014.5 |
| 20260905130100 | 24 | 293 | 1.6 | 8.0 | 0.00 | 3.78 | 0.00 | 91 | 1013.7 |
| 20260905125654 | 24 | 351 | 3.2 | 8.0 | 0.00 | 3.78 | 0.00 | 91 | 1014.5 |
| 20260905125153 | 24 | 357 | 4.8 | 6.4 | 0.00 | 3.78 | 0.00 | 91 | 1014.6 |
| 20260905124654 | 24 | 359 | 3.2 | 6.4 | 0.00 | 3.78 | 0.00 | 91 | 1014.4 |
| 20260905124557 | 23 | 285 | 3.2 | 6.4 | 0.00 | 3.78 | 0.00 | 92 | 1013.6 |
| 20260905124153 | 24 | 349 | 1.6 | 6.4 | 0.00 | 3.78 | 0.00 | 91 | 1014.3 |
| 20260905123642 | 24 | 351 | 3.2 | 6.4 | 0.00 | 3.78 | 0.00 | 91 | 1014.2 |
| 20260905123133 | 24 | 355 | 1.6 | 6.4 | 0.00 | 3.78 | 0.00 | 91 | 1014.2 |
| 20260905123056 | 23 | 297 | 3.2 | 6.4 | 0.00 | 3.78 | 0.00 | 92 | 1013.3 |
| 20260905122625 | 24 | 359 | 1.6 | 4.8 | 0.00 | 3.78 | 0.00 | 91 | 1014.2 |